| time (UTC) | temp F | wind direction | speed MPH | gust MPH | rain 1hr in | rain 24hr in | rain mn in | humidity % | barometer mb |
| 20260906111519 | 82 | 261 | 6.0 | 0.0 | 0.00 | 0.00 | 0.00 | 51 | 1007.6 |
| 20260906110016 | 84 | 259 | 4.0 | 0.0 | 0.00 | 0.00 | 0.00 | 48 | 1007.5 |
| 20260906104516 | 85 | 271 | 4.0 | 0.0 | 0.00 | 0.00 | 0.00 | 46 | 1007.5 |
| 20260906103015 | 85 | 222 | 6.0 | 0.0 | 0.00 | 0.00 | 0.00 | 44 | 1007.5 |
| 20260906101514 | 85 | 296 | 8.0 | 0.0 | 0.00 | 0.00 | 0.00 | 43 | 1007.3 |
| 20260906100014 | 86 | 248 | 6.0 | 0.0 | 0.00 | 0.00 | 0.00 | 43 | 1007.2 |
| 20260906094513 | 85 | 245 | 4.0 | 0.0 | 0.00 | 0.00 | 0.00 | 44 | 1007.2 |
| 20260906093024 | 84 | 242 | 2.0 | 0.0 | 0.00 | 0.00 | 0.00 | 45 | 1007.4 |
| 20260906091511 | 84 | 210 | 2.0 | 0.0 | 0.00 | 0.00 | 0.00 | 46 | 1007.4 |
| 20260906090010 | 83 | 190 | 1.0 | 0.0 | 0.00 | 0.00 | 0.00 | 48 | 1007.4 |
| 20260906084509 | 83 | 114 | 2.0 | 0.0 | 0.00 | 0.00 | 0.00 | 50 | 1007.6 |
| 20260906083005 | 84 | 200 | 2.0 | 0.0 | 0.00 | 0.00 | 0.00 | 47 | 1007.7 |
| 20260906081503 | 84 | 252 | 1.0 | 0.0 | 0.00 | 0.00 | 0.00 | 45 | 1007.8 |
| 20260906080002 | 85 | 252 | 2.0 | 0.0 | 0.00 | 0.00 | 0.00 | 44 | 1007.8 |
| 20260906074502 | 85 | 262 | 6.0 | 0.0 | 0.00 | 0.00 | 0.00 | 44 | 1007.9 |
| 20260906073108 | 84 | 277 | 7.0 | 0.0 | 0.00 | 0.00 | 0.00 | 45 | 1008.0 |
| 20260906071555 | 85 | 263 | 4.0 | 0.0 | 0.00 | 0.00 | 0.00 | 45 | 1008.2 |
| 20260906071520 | 85 | 269 | 3.0 | 0.0 | 0.00 | 0.00 | 0.00 | 46 | 1008.3 |
| 20260906070112 | 86 | 263 | 3.0 | 0.0 | 0.00 | 0.00 | 0.00 | 40 | 1008.5 |
| 20260906064551 | 86 | 275 | 5.0 | 0.0 | 0.00 | 0.00 | 0.00 | 38 | 1008.2 |
| 20260906063051 | 86 | 304 | 5.0 | 0.0 | 0.00 | 0.00 | 0.00 | 36 | 1008.2 |
| 20260906061604 | 86 | 299 | 7.0 | 0.0 | 0.00 | 0.00 | 0.00 | 35 | 1008.0 |
| 20260906060050 | 87 | 279 | 4.0 | 0.0 | 0.00 | 0.00 | 0.00 | 35 | 1008.0 |
| 20260906054549 | 87 | 327 | 5.0 | 0.0 | 0.00 | 0.00 | 0.00 | 35 | 1008.2 |
| 20260906053052 | 87 | 319 | 7.0 | 0.0 | 0.00 | 0.00 | 0.00 | 34 | 1008.2 |
| 20260906051546 | 87 | 275 | 7.0 | 0.0 | 0.00 | 0.00 | 0.00 | 34 | 1008.2 |
| 20260906050105 | 88 | 269 | 8.0 | 0.0 | 0.00 | 0.00 | 0.00 | 33 | 1008.1 |
| 20260906044545 | 88 | 306 | 7.0 | 0.0 | 0.00 | 0.00 | 0.00 | 33 | 1008.1 |
| 20260906043058 | 88 | 275 | 7.0 | 0.0 | 0.00 | 0.00 | 0.00 | 33 | 1008.1 |
| 20260906041543 | 88 | 312 | 9.0 | 0.0 | 0.00 | 0.00 | 0.00 | 32 | 1007.9 |
| 20260906040104 | 89 | 273 | 10.0 | 0.0 | 0.00 | 0.00 | 0.00 | 32 | 1007.6 |
| 20260906040027 | 89 | 263 | 10.0 | 0.0 | 0.00 | 0.00 | 0.00 | 32 | 1007.6 |
| 20260906034528 | 89 | 271 | 10.0 | 0.0 | 0.00 | 0.00 | 0.00 | 32 | 1007.3 |
| 20260906033044 | 89 | 326 | 9.0 | 0.0 | 0.00 | 0.00 | 0.00 | 31 | 1007.1 |
| 20260906031540 | 90 | 283 | 11.0 | 0.0 | 0.00 | 0.00 | 0.00 | 31 | 1006.8 |
| 20260906030040 | 91 | 278 | 10.0 | 0.0 | 0.00 | 0.00 | 0.00 | 30 | 1006.6 |
| 20260906024540 | 91 | 294 | 10.0 | 0.0 | 0.00 | 0.00 | 0.00 | 29 | 1006.5 |
| 20260906023054 | 92 | 267 | 11.0 | 0.0 | 0.00 | 0.00 | 0.00 | 29 | 1006.4 |
| 20260906021538 | 93 | 297 | 11.0 | 0.0 | 0.00 | 0.00 | 0.00 | 28 | 1006.2 |
| 20260906020037 | 93 | 318 | 13.0 | 0.0 | 0.00 | 0.00 | 0.00 | 27 | 1006.1 |
| 20260906014549 | 94 | 322 | 11.0 | 0.0 | 0.00 | 0.00 | 0.00 | 27 | 1006.2 |
| 20260906013034 | 96 | 290 | 6.0 | 0.0 | 0.00 | 0.00 | 0.00 | 26 | 1006.2 |
| 20260906011540 | 96 | 335 | 2.0 | 0.0 | 0.00 | 0.00 | 0.00 | 25 | 1006.4 |
| 20260906010032 | 96 | 127 | 3.0 | 0.0 | 0.00 | 0.00 | 0.00 | 23 | 1006.3 |
| 20260906004532 | 96 | 123 | 3.0 | 0.0 | 0.00 | 0.00 | 0.00 | 23 | 1006.3 |
| 20260906003031 | 96 | 148 | 2.0 | 0.0 | 0.00 | 0.00 | 0.00 | 23 | 1006.4 |
| 20260906001530 | 96 | 144 | 2.0 | 0.0 | 0.00 | 0.00 | 0.00 | 23 | 1006.3 |
| 20260906000028 | 96 | 112 | 2.0 | 0.0 | 0.00 | 0.00 | 0.00 | 23 | 1006.4 |
| 20260905234527 | 96 | 115 | 1.0 | 0.0 | 0.00 | 0.00 | 0.00 | 23 | 1006.5 |
| 20260905233026 | 96 | 11 | 1.0 | 0.0 | 0.00 | 0.00 | 0.00 | 23 | 1006.5 |
| 20260905231525 | 96 | 83 | 1.0 | 0.0 | 0.00 | 0.00 | 0.00 | 23 | 1006.6 |
| 20260905230023 | 95 | 52 | 2.0 | 0.0 | 0.00 | 0.00 | 0.00 | 23 | 1006.8 |
| 20260905224520 | 95 | 17 | 4.0 | 0.0 | 0.00 | 0.00 | 0.00 | 24 | 1006.9 |
| 20260905223025 | 94 | 67 | 3.0 | 0.0 | 0.00 | 0.00 | 0.00 | 24 | 1007.1 |
| 20260905221516 | 94 | 31 | 4.0 | 0.0 | 0.00 | 0.00 | 0.00 | 23 | 1007.1 |
| 20260905220014 | 94 | 74 | 5.0 | 0.0 | 0.00 | 0.00 | 0.00 | 23 | 1007.3 |
| 20260905214514 | 93 | 115 | 5.0 | 0.0 | 0.00 | 0.00 | 0.00 | 23 | 1007.5 |
| 20260905213014 | 93 | 112 | 7.0 | 0.0 | 0.00 | 0.00 | 0.00 | 23 | 1007.8 |
| 20260905211513 | 93 | 97 | 7.0 | 0.0 | 0.00 | 0.00 | 0.00 | 22 | 1007.9 |
| 20260905210013 | 93 | 128 | 6.0 | 0.0 | 0.00 | 0.00 | 0.00 | 22 | 1008.1 |
| 20260905204512 | 93 | 113 | 7.0 | 0.0 | 0.00 | 0.00 | 0.00 | 22 | 1008.2 |
| 20260905203010 | 93 | 123 | 7.0 | 0.0 | 0.00 | 0.00 | 0.00 | 22 | 1008.1 |
| 20260905201515 | 94 | 98 | 6.0 | 0.0 | 0.00 | 0.00 | 0.00 | 23 | 1008.3 |
| 20260905200007 | 93 | 88 | 6.0 | 0.0 | 0.00 | 0.00 | 0.00 | 24 | 1008.5 |
| 20260905194504 | 92 | 162 | 4.0 | 0.0 | 0.00 | 0.00 | 0.00 | 25 | 1008.6 |
| 20260905193003 | 91 | 102 | 5.0 | 0.0 | 0.00 | 0.00 | 0.00 | 26 | 1008.9 |
| 20260905191604 | 91 | 72 | 5.0 | 0.0 | 0.00 | 0.00 | 0.00 | 26 | 1009.2 |
| 20260905190052 | 91 | 79 | 4.0 | 0.0 | 0.00 | 0.00 | 0.00 | 25 | 1009.2 |
| 20260905184554 | 92 | 129 | 4.0 | 0.0 | 0.00 | 0.00 | 0.00 | 24 | 1009.4 |
| 20260905183047 | 91 | 86 | 4.0 | 0.0 | 0.00 | 0.00 | 0.00 | 23 | 1009.5 |
| 20260905181540 | 91 | 83 | 3.0 | 0.0 | 0.00 | 0.00 | 0.00 | 21 | 1009.7 |
| 20260905180037 | 90 | 56 | 1.0 | 0.0 | 0.00 | 0.00 | 0.00 | 22 | 1009.7 |
| 20260905173032 | 88 | 312 | 1.0 | 0.0 | 0.00 | 0.00 | 0.00 | 20 | 1009.7 |
| 20260905171534 | 88 | 312 | 1.0 | 0.0 | 0.00 | 0.00 | 0.00 | 20 | 1009.7 |
| 20260905170026 | 86 | 312 | 0.0 | 0.0 | 0.00 | 0.00 | 0.00 | 19 | 1009.7 |
| 20260905164530 | 85 | 252 | 2.0 | 0.0 | 0.00 | 0.00 | 0.00 | 18 | 1009.6 |
| 20260905163021 | 85 | 358 | 2.0 | 0.0 | 0.00 | 0.00 | 0.00 | 17 | 1009.6 |
| 20260905161519 | 84 | 358 | 1.0 | 0.0 | 0.00 | 0.00 | 0.00 | 17 | 1009.6 |
| 20260905160020 | 84 | 358 | 2.0 | 0.0 | 0.00 | 0.00 | 0.00 | 16 | 1009.4 |
| 20260905154519 | 83 | 359 | 2.0 | 0.0 | 0.00 | 0.00 | 0.00 | 17 | 1009.5 |
| 20260905153017 | 82 | 286 | 3.0 | 0.0 | 0.00 | 0.00 | 0.00 | 19 | 1009.4 |
| 20260905151516 | 81 | 283 | 5.0 | 0.0 | 0.00 | 0.00 | 0.00 | 19 | 1009.2 |
| 20260905150018 | 80 | 293 | 4.0 | 0.0 | 0.00 | 0.00 | 0.00 | 19 | 1009.1 |
| 20260905144516 | 80 | 256 | 1.0 | 0.0 | 0.00 | 0.00 | 0.00 | 20 | 1009.0 |
| 20260905143021 | 80 | 250 | 3.0 | 0.0 | 0.00 | 0.00 | 0.00 | 22 | 1009.0 |
| 20260905141510 | 79 | 256 | 4.0 | 0.0 | 0.00 | 0.00 | 0.00 | 22 | 1008.6 |
| 20260905140011 | 77 | 296 | 3.0 | 0.0 | 0.00 | 0.00 | 0.00 | 20 | 1008.4 |
| 20260905134510 | 76 | 303 | 3.0 | 0.0 | 0.00 | 0.00 | 0.00 | 20 | 1008.2 |
| 20260905133005 | 78 | 292 | 3.0 | 0.0 | 0.00 | 0.00 | 0.00 | 24 | 1008.0 |
| 20260905131501 | 80 | 167 | 2.0 | 0.0 | 0.00 | 0.00 | 0.00 | 22 | 1007.9 |
| 20260905130000 | 79 | 167 | 1.0 | 0.0 | 0.00 | 0.00 | 0.00 | 18 | 1007.7 |
| 20260905124559 | 80 | 167 | 1.0 | 0.0 | 0.00 | 0.00 | 0.00 | 17 | 1007.6 |
| 20260905123059 | 81 | 121 | 2.0 | 0.0 | 0.00 | 0.00 | 0.00 | 17 | 1007.6 |
| 20260905121609 | 83 | 110 | 5.0 | 0.0 | 0.00 | 0.00 | 0.00 | 18 | 1007.3 |
| 20260905120106 | 83 | 198 | 7.0 | 0.0 | 0.00 | 0.00 | 0.00 | 20 | 1007.3 |
| 20260905114554 | 84 | 198 | 5.0 | 0.0 | 0.00 | 0.00 | 0.00 | 19 | 1007.3 |
| 20260905113052 | 83 | 178 | 3.0 | 0.0 | 0.00 | 0.00 | 0.00 | 19 | 1007.4 |